EW6155 Weather Reports


Display with metric or nautical units.
time (UTC)temp
F
wind
direction
speed
MPH
gust
MPH
rain 1hr
in
rain 24hr
in
rain mn
in
humidity
%
barometer
mb
20220625174443 48 103 3.0 6.0 0.00 0.10 0.00 94 1031.1
20220625173942 48 41 2.0 6.0 0.00 0.10 0.00 94 1031.1
20220625173443 48 92 2.0 5.0 0.00 0.10 0.00 94 1031.1
20220625172941 48 70 1.0 5.0 0.00 0.10 0.00 95 1031.1
20220625172441 48 24 1.0 5.0 0.00 0.10 0.00 95 1031.0
20220625171941 48 129 2.0 5.0 0.00 0.10 0.00 96 1031.0
20220625171441 47 79 3.0 5.0 0.00 0.10 0.00 96 1030.8
20220625170941 47 84 2.0 4.0 0.00 0.10 0.00 96 1031.0
20220625170439 47 114 2.0 6.0 0.00 0.10 0.00 96 1031.0
20220625165939 47 99 1.0 6.0 0.00 0.10 0.00 97 1030.8
20220625165439 47 103 1.0 3.0 0.00 0.10 0.00 98 1031.0
20220625164938 47 41 1.0 4.0 0.00 0.10 0.00 98 1031.0
20220625164437 47 75 1.0 5.0 0.00 0.10 0.00 98 1031.0
20220625163936 46 96 2.0 5.0 0.00 0.10 0.00 98 1031.0
20220625163438 46 132 1.0 4.0 0.00 0.10 0.00 98 1031.1
20220625162937 46 79 1.0 3.0 0.00 0.10 0.00 98 1031.1
20220625162438 46 86 0.0 1.0 0.00 0.10 0.00 98 1031.1
20220625161936 46 118 0.0 2.0 0.00 0.10 0.00 98 1031.0
20220625161434 46 104 0.0 2.0 0.00 0.10 0.00 98 1031.0
20220625160934 46 352 0.0 2.0 0.00 0.10 0.00 98 1031.0
20220625160435 46 56 1.0 4.0 0.00 0.10 0.00 98 1031.1
20220625155932 46 298 1.0 4.0 0.00 0.10 0.00 98 1031.0
20220625155433 46 15 0.0 4.0 0.00 0.10 0.00 98 1031.0
20220625154932 46 279 1.0 4.0 0.00 0.10 0.00 98 1031.1
20220625154432 46 99 1.0 3.0 0.00 0.10 0.00 98 1031.1
20220625153933 46 101 1.0 5.0 0.00 0.10 0.00 98 1031.2
20220625153433 46 8 1.0 5.0 0.00 0.10 0.00 98 1031.1
20220625152934 46 104 2.0 4.0 0.00 0.10 0.00 98 1031.1
20220625152433 46 75 2.0 4.0 0.00 0.10 0.00 98 1031.1
20220625151930 46 77 2.0 4.0 0.00 0.10 0.00 98 1031.1
20220625151431 47 89 2.0 4.0 0.00 0.10 0.00 98 1031.1
20220625150930 47 90 2.0 6.0 0.00 0.10 0.00 98 1031.0
20220625150431 47 94 2.0 6.0 0.00 0.10 0.00 97 1030.8
20220625145931 47 84 1.0 5.0 0.00 0.10 0.00 97 1030.8
20220625145430 47 106 2.0 5.0 0.00 0.10 0.00 97 1030.8
20220625144930 47 90 2.0 5.0 0.00 0.10 0.00 97 1030.8
20220625144430 47 108 2.0 5.0 0.00 0.10 0.00 97 1030.7
20220625143930 47 79 2.0 5.0 0.00 0.10 0.00 97 1030.6
20220625143430 47 51 2.0 7.0 0.00 0.10 0.00 97 1030.6
20220625142928 48 94 2.0 7.0 0.00 0.10 0.00 97 1030.6
20220625142429 48 91 2.0 6.0 0.00 0.10 0.00 97 1030.5
20220625141931 48 61 3.0 8.0 0.00 0.10 0.00 97 1030.5
20220625141428 48 57 3.0 8.0 0.00 0.10 0.00 96 1030.5
20220625140928 49 25 2.0 8.0 0.00 0.10 0.00 96 1030.6
20220625140437 49 106 1.0 5.0 0.00 0.10 0.00 96 1030.3
20220625135928 49 102 2.0 6.0 0.00 0.10 0.00 96 1030.3
20220625135428 49 32 2.0 8.0 0.00 0.10 0.00 96 1030.2
20220625134928 50 35 3.0 8.0 0.00 0.10 0.00 95 1030.2
20220625134427 50 108 3.0 8.0 0.00 0.10 0.00 95 1030.2
20220625133926 51 79 2.0 8.0 0.00 0.10 0.00 94 1030.1
20220625133427 51 58 1.0 3.0 0.00 0.10 0.00 94 1030.0
20220625132926 52 104 1.0 4.0 0.00 0.10 0.00 94 1030.0
20220625132427 52 87 1.0 4.0 0.00 0.10 0.00 93 1029.8
20220625131926 52 101 1.0 7.0 0.00 0.10 0.00 93 1029.8
20220625131426 52 46 1.0 7.0 0.00 0.10 0.00 93 1029.8
20220625130926 52 66 1.0 4.0 0.00 0.10 0.00 93 1029.7
20220625130426 52 48 1.0 4.0 0.00 0.10 0.00 94 1029.6
20220625125926 52 63 1.0 4.0 0.00 0.10 0.00 94 1029.6
20220625125426 52 334 2.0 6.0 0.00 0.10 0.00 94 1029.5
20220625124927 52 16 2.0 7.0 0.00 0.10 0.00 94 1029.5
20220625124426 52 54 2.0 7.0 0.00 0.10 0.00 94 1029.3
20220625123928 52 349 2.0 6.0 0.00 0.10 0.00 94 1029.3
20220625123426 52 252 1.0 5.0 0.00 0.10 0.00 94 1029.2
20220625122926 52 100 0.0 3.0 0.00 0.10 0.00 93 1029.1
20220625122426 52 143 1.0 7.0 0.00 0.10 0.00 93 1029.0
20220625121925 51 108 2.0 9.0 0.00 0.10 0.00 93 1028.8
20220625121426 51 278 2.0 9.0 0.00 0.10 0.00 93 1028.8
20220625120925 51 331 1.0 6.0 0.00 0.10 0.00 92 1028.8
20220625120427 51 67 2.0 10.0 0.00 0.10 0.00 92 1028.7
20220625115926 51 231 2.0 10.0 0.00 0.10 0.00 91 1028.7
20220625115426 51 99 1.0 7.0 0.00 0.10 0.00 90 1028.6
20220625114926 51 326 1.0 6.0 0.00 0.10 0.00 85 1028.3
20220625114425 51 160 0.0 3.0 0.00 0.10 0.00 80 1028.1
20220625113926 51 44 1.0 7.0 0.00 0.10 0.00 75 1027.8
20220625113425 51 315 2.0 7.0 0.00 0.10 0.00 75 1027.6
20220625112926 50 86 2.0 7.0 0.00 0.10 0.00 74 1027.5
20220625112426 49 221 2.0 13.0 0.00 0.10 0.00 68 1027.3
20220625111927 48 53 1.0 13.0 0.00 0.10 0.00 68 1026.6
20220625111425 47 300 0.0 1.0 0.00 0.10 0.00 68 1025.8
20220625110926 48 301 0.0 0.0 0.00 0.10 0.00 68 1025.8
20220625110425 48 301 0.0 1.0 0.00 0.10 0.00 68 1025.8
20220625105926 47 301 0.0 1.0 0.00 0.10 0.00 68 1025.7
20220625105425 47 301 0.0 0.0 0.00 0.10 0.00 67 1025.5
20220625104926 47 301 0.0 1.0 0.00 0.10 0.00 68 1025.3
20220625104425 47 301 0.0 1.0 0.00 0.10 0.00 69 1025.3
20220625103926 47 301 0.0 0.0 0.00 0.10 0.00 70 1025.3
20220625103426 47 301 0.0 1.0 0.00 0.10 0.00 69 1025.3
20220625102927 48 300 0.0 1.0 0.00 0.10 0.00 68 1025.2
20220625102426 48 281 0.0 0.0 0.00 0.10 0.00 67 1025.2
20220625101926 48 281 0.0 0.0 0.00 0.10 0.00 68 1025.1
20220625101425 48 281 0.0 0.0 0.00 0.10 0.00 68 1025.0
20220625100927 48 281 0.0 0.0 0.00 0.10 0.00 68 1025.0
20220625100425 48 281 0.0 0.0 0.00 0.10 0.00 67 1025.0
20220625095926 48 281 0.0 0.0 0.00 0.10 0.00 67 1025.0
20220625095428 48 281 0.0 1.0 0.00 0.10 0.00 67 1025.0
20220625094926 48 281 0.0 1.0 0.00 0.10 0.00 67 1024.8
20220625094425 48 281 0.0 1.0 0.00 0.10 0.00 70 1024.8
20220625093926 48 281 0.0 0.0 0.00 0.10 0.00 71 1025.0
20220625093424 49 281 0.0 0.0 0.00 0.10 0.00 69 1024.8
20220625092924 49 281 0.0 1.0 0.00 0.10 0.00 67 1024.7
20220625092423 48 281 0.0 1.0 0.00 0.10 0.00 68 1024.7
20220625091924 49 281 0.0 1.0 0.00 0.10 0.00 69 1024.7
20220625091421 49 281 0.0 1.0 0.00 0.10 0.00 69 1024.7
20220625090921 49 279 0.0 1.0 0.00 0.10 0.00 70 1024.7
20220625090421 48 276 0.0 1.0 0.00 0.10 0.00 72 1024.7
20220625085919 47 246 0.0 1.0 0.00 0.10 0.00 73 1024.7
20220625085420 48 285 0.0 1.0 0.00 0.10 0.00 73 1024.6
20220625084918 48 285 0.0 1.0 0.00 0.10 0.00 74 1024.6
20220625084416 47 257 0.0 1.0 0.00 0.10 0.00 75 1024.6
20220625083916 47 298 0.0 1.0 0.00 0.10 0.00 77 1024.6
20220625083416 47 297 0.0 1.0 0.00 0.10 0.00 78 1024.6
20220625082916 47 298 0.0 1.0 0.00 0.10 0.00 79 1024.5
20220625082416 47 298 0.0 0.0 0.00 0.10 0.00 79 1024.5
20220625081916 48 300 0.0 0.0 0.00 0.10 0.00 79 1024.5
20220625081416 48 300 0.0 1.0 0.00 0.10 0.00 77 1024.2
20220625080917 48 300 0.0 2.0 0.00 0.10 0.00 79 1024.2
20220625080414 48 300 1.0 2.0 0.00 0.10 0.00 78 1024.2
20220625075914 48 278 0.0 1.0 0.00 0.10 0.00 78 1024.2
20220625075414 48 288 0.0 1.0 0.00 0.10 0.00 80 1024.2
20220625074914 47 288 0.0 0.0 0.00 0.10 0.00 82 1024.1
20220625074414 48 288 0.0 0.0 0.00 0.10 0.00 83 1024.1
20220625073914 48 288 0.0 0.0 0.00 0.10 0.00 83 1024.1
20220625073413 48 288 0.0 0.0 0.00 0.10 0.00 84 1024.0
20220625072912 48 288 0.0 1.0 0.00 0.10 0.00 84 1024.0
20220625072412 48 288 0.0 1.0 0.00 0.10 0.00 84 1024.0
20220625071915 47 276 0.0 1.0 0.00 0.10 0.00 85 1023.8
20220625071412 47 276 0.0 1.0 0.00 0.10 0.00 84 1023.8
20220625070913 48 276 0.0 1.0 0.00 0.10 0.00 85 1023.8
20220625070413 48 276 0.0 1.0 0.00 0.10 0.00 85 1023.8
20220625065912 47 281 0.0 1.0 0.00 0.10 0.00 86 1023.8
20220625065412 47 279 0.0 1.0 0.00 0.10 0.00 88 1023.8
20220625064911 47 283 0.0 1.0 0.00 0.10 0.00 88 1023.7
20220625064412 48 283 0.0 1.0 0.00 0.10 0.00 87 1023.7
20220625063912 48 283 0.0 1.0 0.00 0.10 0.00 87 1023.5
20220625063410 49 285 0.0 1.0 0.00 0.10 0.00 86 1023.5
20220625062909 49 267 1.0 4.0 0.00 0.10 0.00 86 1023.5
20220625062410 50 264 1.0 4.0 0.00 0.10 0.00 83 1023.6
20220625061909 52 84 0.0 3.0 0.00 0.10 0.00 79 1023.5
20220625061410 51 284 0.0 2.0 0.00 0.10 0.00 78 1023.3
20220625060909 50 284 0.0 1.0 0.00 0.10 0.00 84 1023.6
20220625060410 49 297 0.0 1.0 0.00 0.10 0.00 87 1023.7
20220625055909 49 300 0.0 1.0 0.00 0.10 0.10 88 1023.8
20220625055409 48 301 0.0 1.0 0.00 0.10 0.10 89 1024.0
20220625054910 48 301 0.0 1.0 0.00 0.10 0.10 88 1024.0
20220625054409 48 301 0.0 1.0 0.00 0.10 0.10 88 1024.0
20220625053910 49 301 0.0 1.0 0.00 0.10 0.10 88 1024.0
20220625053409 49 325 0.0 1.0 0.00 0.10 0.10 89 1023.8
20220625052910 49 324 0.0 1.0 0.00 0.10 0.10 89 1023.8
20220625052409 49 290 0.0 0.0 0.00 0.10 0.10 89 1024.0
20220625051910 49 290 0.0 0.0 0.00 0.10 0.10 89 1024.0
20220625051409 49 290 0.0 0.0 0.00 0.10 0.10 89 1023.8
20220625050910 49 290 0.0 1.0 0.00 0.10 0.10 89 1023.8
20220625050409 49 290 0.0 1.0 0.00 0.10 0.10 89 1023.8
20220625045909 49 290 0.0 1.0 0.00 0.10 0.10 89 1023.8
20220625045408 49 290 0.0 1.0 0.00 0.10 0.10 89 1023.8
20220625044908 49 276 0.0 1.0 0.00 0.10 0.10 88 1023.7
20220625044407 50 250 0.0 1.0 0.00 0.10 0.10 88 1023.7
20220625043908 50 319 0.0 1.0 0.00 0.10 0.10 88 1023.7
20220625043408 50 307 0.0 1.0 0.00 0.10 0.10 88 1023.6
20220625042908 50 307 0.0 1.0 0.00 0.10 0.10 88 1023.7
20220625042407 50 264 0.0 1.0 0.00 0.10 0.10 89 1023.7
20220625041908 50 307 0.0 2.0 0.00 0.10 0.10 89 1023.6
20220625041408 50 315 0.0 2.0 0.00 0.10 0.10 88 1023.6
20220625040907 50 283 0.0 0.0 0.00 0.10 0.10 89 1023.5
20220625040407 50 283 0.0 1.0 0.00 0.10 0.10 89 1023.5
20220625035905 50 283 0.0 1.0 0.00 0.10 0.10 88 1023.6
20220625035405 50 283 0.0 1.0 0.00 0.10 0.10 88 1023.6
20220625034905 51 283 0.0 0.0 0.00 0.10 0.10 88 1023.5
20220625034406 51 283 0.0 0.0 0.00 0.10 0.10 88 1023.5
20220625033906 51 283 0.0 0.0 0.00 0.10 0.10 88 1023.3
20220625033405 51 283 0.0 1.0 0.00 0.10 0.10 88 1023.2
20220625032905 51 283 0.0 1.0 0.00 0.10 0.10 88 1023.2
20220625032406 51 283 0.0 0.0 0.00 0.10 0.10 89 1023.1
20220625031906 51 283 0.0 1.0 0.00 0.10 0.10 89 1023.0
20220625031405 51 283 0.0 1.0 0.00 0.10 0.10 88 1023.0
20220625030904 52 283 0.0 1.0 0.00 0.10 0.10 88 1023.0
20220625030413 52 283 0.0 1.0 0.00 0.10 0.10 87 1023.0
20220625025904 52 283 0.0 1.0 0.00 0.10 0.10 87 1023.0
20220625025404 53 282 0.0 1.0 0.00 0.10 0.10 86 1022.8
20220625024903 53 283 0.0 1.0 0.00 0.10 0.10 85 1022.7
20220625024404 53 283 0.0 1.0 0.00 0.10 0.10 86 1022.8
20220625023903 53 281 0.0 1.0 0.00 0.10 0.10 87 1023.0
20220625023403 54 281 0.0 1.0 0.01 0.10 0.10 88 1023.0
20220625022903 54 269 1.0 4.0 0.01 0.10 0.10 87 1023.1
20220625022403 55 285 1.0 4.0 0.01 0.10 0.10 86 1022.8
20220625021901 54 297 1.0 4.0 0.01 0.10 0.10 88 1023.1
20220625021401 54 314 0.0 2.0 0.01 0.10 0.10 87 1022.7
20220625020901 55 293 0.0 2.0 0.02 0.10 0.10 86 1022.7
20220625020403 56 233 0.0 1.0 0.02 0.10 0.10 84 1022.7
20220625015901 56 276 1.0 7.0 0.02 0.10 0.10 81 1022.6
20220625015402 56 274 2.0 7.0 0.02 0.10 0.10 79 1022.8
20220625014901 56 203 1.0 6.0 0.04 0.10 0.10 82 1022.7
20220625014359 56 226 0.0 4.0 0.05 0.10 0.10 84 1022.7
20220625013900 56 239 1.0 5.0 0.05 0.10 0.10 77 1022.7
20220625013359 56 268 1.0 6.0 0.04 0.09 0.09 77 1023.3
20220625012857 56 176 1.0 6.0 0.04 0.09 0.09 82 1023.0
20220625012357 56 215 1.0 3.0 0.04 0.09 0.09 81 1023.3
20220625011857 56 329 1.0 7.0 0.04 0.09 0.09 79 1023.1
20220625011357 57 295 2.0 9.0 0.04 0.09 0.09 75 1022.6
20220625010856 58 103 3.0 9.0 0.03 0.08 0.09 73 1022.6
20220625010355 58 226 2.0 8.0 0.03 0.08 0.08 74 1022.6
20220625005855 58 280 2.0 7.0 0.03 0.08 0.08 75 1022.6
20220625005355 59 290 2.0 15.0 0.03 0.08 0.08 73 1022.6
20220625004854 60 305 2.0 15.0 0.01 0.06 0.06 66 1022.5
20220625004353 60 329 0.0 5.0 0.00 0.05 0.05 68 1022.2
20220625003854 60 333 0.0 2.0 0.00 0.05 0.05 72 1022.2
20220625003354 61 266 0.0 2.0 0.00 0.05 0.05 71 1022.0
20220625002854 61 195 1.0 4.0 0.00 0.05 0.05 71 1021.8
20220625002353 62 273 1.0 5.0 0.00 0.05 0.05 67 1022.0
20220625001854 62 295 1.0 5.0 0.00 0.05 0.05 64 1021.7
20220625001353 62 340 1.0 7.0 0.00 0.05 0.05 68 1021.6
20220625000853 62 354 1.0 7.0 0.00 0.05 0.05 62 1021.6
20220625000353 62 262 0.0 3.0 0.00 0.05 0.05 67 1021.5
20220624235853 62 23 0.0 3.0 0.00 0.05 0.05 73 1021.5
20220624235353 62 236 0.0 3.0 0.01 0.05 0.05 69 1021.6
20220624234853 61 250 0.0 2.0 0.01 0.05 0.05 70 1021.5
20220624234351 61 236 0.0 3.0 0.02 0.05 0.05 71 1021.5
20220624233852 60 235 1.0 5.0 0.03 0.05 0.05 73 1021.5
20220624233351 58 148 0.0 5.0 0.04 0.05 0.05 83 1021.6
20220624232852 57 131 1.0 5.0 0.05 0.05 0.05 84 1021.6
20220624232351 57 97 2.0 7.0 0.05 0.05 0.05 81 1021.6
20220624231852 57 101 2.0 7.0 0.05 0.05 0.05 79 1021.8
20220624231351 57 256 2.0 6.0 0.05 0.05 0.05 78 1022.2
20220624230852 56 149 1.0 5.0 0.05 0.05 0.05 86 1022.6
20220624230351 55 124 2.0 5.0 0.05 0.05 0.05 85 1022.8
20220624225851 55 312 3.0 12.0 0.05 0.05 0.05 83 1022.7
20220624225352 56 25 5.0 16.0 0.04 0.04 0.04 80 1022.3
20220624224851 57 16 6.0 16.0 0.04 0.04 0.04 76 1022.2
20220624224351 57 3 5.0 14.0 0.03 0.03 0.03 75 1022.5
20220624223851 58 132 5.0 15.0 0.02 0.02 0.02 73 1022.7
20220624223351 60 278 6.0 17.0 0.01 0.01 0.01 65 1022.8
20220624222851 64 241 4.0 17.0 0.00 0.00 0.00 58 1022.8
20220624222352 66 267 1.0 6.0 0.00 0.00 0.00 50 1022.6
20220624221852 67 200 1.0 6.0 0.00 0.00 0.00 48 1022.6
20220624221351 67 108 1.0 4.0 0.00 0.00 0.00 46 1022.2
20220624220851 68 101 1.0 4.0 0.00 0.00 0.00 45 1022.2
20220624220351 69 121 1.0 3.0 0.00 0.00 0.00 43 1022.1
20220624215851 69 56 0.0 3.0 0.00 0.00 0.00 42 1022.0
20220624215354 69 22 0.0 4.0 0.00 0.00 0.00 42 1021.8
20220624214851 69 257 1.0 4.0 0.00 0.00 0.00 42 1021.7
20220624214352 69 290 1.0 4.0 0.00 0.00 0.00 42 1021.7
20220624213849 70 349 0.0 3.0 0.00 0.00 0.00 42 1021.7
20220624213349 69 1 1.0 6.0 0.00 0.00 0.00 42 1021.6
20220624212849 69 249 2.0 9.0 0.00 0.00 0.00 42 1021.7
20220624212349 69 294 2.0 9.0 0.00 0.00 0.00 42 1021.7
20220624211849 69 291 2.0 6.0 0.00 0.00 0.00 42 1021.8
20220624211349 70 55 2.0 9.0 0.00 0.00 0.00 42 1021.8
20220624210848 69 25 3.0 9.0 0.00 0.00 0.00 42 1021.7
20220624210348 69 32 4.0 12.0 0.00 0.00 0.00 42 1021.7
20220624205847 69 302 4.0 13.0 0.00 0.00 0.00 44 1021.7
20220624205347 68 122 4.0 13.0 0.00 0.00 0.00 47 1021.7
20220624204847 69 249 5.0 13.0 0.00 0.00 0.00 44 1021.5
20220624204347 71 219 3.0 13.0 0.00 0.00 0.00 40 1021.3
20220624203847 71 224 2.0 8.0 0.00 0.00 0.00 37 1021.3
20220624203346 72 139 1.0 8.0 0.00 0.00 0.00 34 1021.1
20220624202847 73 295 0.0 1.0 0.00 0.00 0.00 32 1021.2
20220624202347 73 294 1.0 2.0 0.00 0.00 0.00 31 1021.0
20220624201847 74 359 1.0 3.0 0.00 0.00 0.00 30 1020.8
20220624201347 74 242 0.0 3.0 0.00 0.00 0.00 31 1020.6
20220624200848 73 80 2.0 6.0 0.00 0.00 0.00 32 1020.5
20220624200347 73 76 3.0 6.0 0.00 0.00 0.00 31 1020.5
20220624195844 74 75 4.0 9.0 0.00 0.00 0.00 31 1020.3
20220624195345 74 101 5.0 10.0 0.00 0.00 0.00 31 1020.3
20220624194844 74 83 6.0 14.0 0.00 0.00 0.00 32 1020.3
20220624194342 74 84 5.0 14.0 0.00 0.00 0.00 31 1020.3
20220624193841 74 96 4.0 11.0 0.00 0.00 0.00 31 1020.2
20220624193341 75 21 5.0 15.0 0.00 0.00 0.00 30 1020.3
20220624192840 75 111 5.0 15.0 0.00 0.00 0.00 32 1020.3
20220624192340 75 68 5.0 11.0 0.00 0.00 0.00 33 1020.3
20220624191846 74 110 6.0 16.0 0.00 0.00 0.00 33 1020.3
20220624191340 74 126 6.0 16.0 0.00 0.00 0.00 31 1020.6
20220624190841 74 265 5.0 11.0 0.00 0.00 0.00 31 1020.6
20220624190340 74 181 5.0 11.0 0.00 0.00 0.00 31 1020.7
20220624185840 74 80 5.0 11.0 0.00 0.00 0.00 31 1020.7
20220624185341 74 123 4.0 10.0 0.00 0.00 0.00 33 1020.6
20220624184843 73 44 4.0 10.0 0.00 0.00 0.00 34 1020.7
20220624184338 73 357 5.0 12.0 0.00 0.00 0.00 34 1020.8
20220624183839 72 91 5.0 12.0 0.00 0.00 0.00 36 1021.1
20220624183338 72 86 3.0 8.0 0.00 0.00 0.00 36 1021.1
20220624182838 71 27 2.0 8.0 0.00 0.00 0.00 37 1021.2
20220624182337 72 80 3.0 9.0 0.00 0.00 0.00 35 1021.1
20220624181838 72 92 3.0 9.0 0.00 0.00 0.00 32 1021.2
20220624181338 73 40 2.0 8.0 0.00 0.00 0.00 32 1021.1
20220624180838 73 348 4.0 9.0 0.00 0.00 0.00 31 1021.2
20220624180338 73 6 4.0 9.0 0.00 0.00 0.00 31 1021.2
20220624175838 73 101 4.0 9.0 0.00 0.00 0.00 33 1021.2
20220624175336 72 68 3.0 9.0 0.00 0.00 0.00 35 1021.2
20220624174836 71 79 3.0 7.0 0.00 0.00 0.00 36 1021.3